Regional Weather Roundup
Issued by NWS Goodland, KS

Home | Current Version | Previous Version | Graphics & Text | Print | Product List | Glossary On
Versions: 1 2 3 4 5 6 7 8 9 10 11 12 13 14 15 16 17 18 19 20 21 22 23 24 25 26 27 28 29 30 31 32 33 34 35 36 37 38 39 40 41 42 43 44 45 46 47 48 49 50
000
ASUS43 KGLD 191908
RWRGLD

GOODLAND FORECAST AREA HOURLY WEATHER ROUNDUP
NATIONAL WEATHER SERVICE GOODLAND KS
100 PM MDT SAT APR 19 2014

...OFFICIAL OBSERVATIONS...

CITY           SKY/WX    TMP DP  RH WIND       PRES   REMARKS
GOODLAND KS    PTSUNNY   70  46  42 NE21G28   29.97F
HILL CITY KS   CLOUDY    78  46  32 SW9G17    29.91F
IMPERIAL NEB   PTSUNNY   67  40  37 N15       30.02S
MCCOOK NEB     PTSUNNY   67  48  50 NE16      29.97R
AKRON CO       CLOUDY    61  40  45 NE10      30.06S
BURLINGTON CO  PTSUNNY   69  43  38 N22       29.99F
LIMON CO       PTSUNNY   67  35  30 NE22      30.04F
$$

...UNOFFICIAL OBSERVATIONS...

CITY           SKY/WX    TMP DP  RH WIND       PRES   REMARKS
COLBY KS       SUNNY     68  52  56 NE15      29.97R
LENORA KS        N/A     74  32  21 S6          N/A
LEOTI KS         N/A     74  32  21 CALM        N/A
NORTON KS      SUNNY     72  46  40 NE3       29.92F
OBERLIN KS     FAIR      68  48  49 NE8       29.95
SHARON SPRINGS   N/A     74  50  42 NE13G21     N/A
ST FRANCIS KS  PTSUNNY   68  43  40 N13G21    29.98F
WAKEENEY KS      N/A     79  43  27 MISG        N/A
WRAY CO        FAIR      66  41  39 N12G18    30.03S
$$



USA.gov is the U.S. government's official web portal to all federal, state and local government web resources and services.